STARLINK-2094, 47375

Orbit data source: Space-Track

STARLINK-2094, 47375 is a payload satellite owned by SpaceX/Seattle (US) in LEO that was launched on Wed, 20 Jan 2021 UTC via an FALCON 9 launch vehicle from the Air Force Eastern Test Range (AFETR). Payload-class satellites include a variety of spacecraft equipped with specific instruments for various scientific and technological missions. These include communications satellites like Starlink; space stations such as the ISS; scientific satellites like the Hubble; Earth observation satellites from companies like Planet Labs, Umbra, and HawkEye 360; GPS; miniature CubeSats for education and research; and military/defense satellites.

Loading next visibility...
Identifier
47375, 2021-005AC
Orbit
LEO
Country
Flag of USUS
Related business
Manufacturer
SpaceX/Seattle
Mission
Operational Commercial Communications
Bus & Motor
STARLINK, Unknown motor
Mass
260 kg wet, ~248 kg dry
Launch date (UTC)
2021-01-20 (5 years ago)
Launch vehicle
FALCON 9
Launch site
Air Force Eastern Test Range (AFETR)
Object type
Payload
Rocket body
Debris
Shape & HBR
Box + 1 Pan, 10.1 m
Radar Cross Section
13.562 m², Large (>1 m²)

Expand to show TLE details & history
Last TLE update: 3 days ago

TLE from 3 days ago
0 STARLINK-2094
1 47375U 21005AC  26170.69514578  .00002140  00000-0  80655-4 0  9990
2 47375  53.1602 307.9765 0000978  58.9288 301.1809 15.31717877298655
Epoch: 2026-06-19T16:41Z
TLE epoch observation values (Epoch: 2026-06-19T16:41:00.595Z)
Latitude
-0.00004°
Longitude
149.80356°
Altitude
471.24 km
Speed
7.632 km/s
True Right ascension
20h 31m 54s
True Declination
0° 00' 00"
Sunlit
Object was in full shadow at epoch
Visualization orbit readout
Latitude
Unknown
Longitude
Unknown
Altitude
Unknown
Speed
Unknown
Apparent Right ascension
Unknown
Apparent Declination
Unknown
Sunlit
N/A
Visualization observer readout
Local Sidereal Time
21:36:26
Azimuth
Unknown
Elevation
Unknown
Doppler factor
Unknown
Orbital elements
Apogee altitude
471.613 km
Perigee altitude
470.273 km
Semi-major axis
6,849.08 km
Eccentricity
0.0001
Inclination
53.1602°
RAAN
307.9765°
Arg. of periapsis
58.9288°
True anomaly
301.17131°
Mean anomaly
301.1809°
Eccentric anomaly
301.17611°
Mean motion
3.82908 °/min
Orbital period
94.02 mins
BSTAR
0.000080655
Loading maneuver chart data...
Computing Atmospheric mass density...
Loading historical data...
Loading historical data...
Loading historical data...
Loading historical data...
Loading historical data...
Loading historical data...
Loading historical data...

Documentation

Showing up to 5 results
|